Stanley, ID

12:10 PM MDT on October 20, 2017 (GMT -0600)
Stanley

Weather History for KSNT - March, 2013

Change the Weather History Date:

Monday, March 18, 2013

  Actual Average Record
Temperature  
Mean Temperature 16 °F 28 °F  
Max Temperature 32 °F 42 °F 57 °F (2017)
Min Temperature 0 °F 13 °F -25 °F (1923)
Degree Days  
Heating Degree Days 49 37  
Month to date heating degree days 698 714  
Since 1 July heating degree days 7783 8248  
Cooling Degree Days 0 0  
Month to date cooling degree days 0 0  
Year to date cooling degree days 0 0  
Moisture  
Dew Point 6 °F    
Average Humidity 66    
Maximum Humidity 95    
Minimum Humidity 36    
Precipitation  
Precipitation 0.00 in 0.07 in 1.10 in (1921)
Month to date precipitation 0.97 0.94  
Year to date precipitation 2.21 4.25  
Sea Level Pressure  
Sea Level Pressure 30.08 in    
Wind  
Wind Speed 4 mph (East)    
Max Wind Speed 12 mph    
Max Gust Speed 17 mph    
T = Trace of Precipitation, MM = Missing Value Source: NWS Daily Summary

Daily Weather History Graph

Daily Weather History Graph

Search for Another Location

Airport or City:

Trip Planner

Search our weather history database for the weather conditions in past years. The results will help you decide how hot, cold, wet, or windy it might be!

Date:

Astronomy

Mar. 18, 2013 Rise Set
Actual Time 7:45 AM MDT 7:50 PM MDT
Civil Twilight 7:17 AM MDT 8:18 PM MDT
Nautical Twilight 6:43 AM MDT 8:52 PM MDT
Astronomical Twilight 6:08 AM MDT 9:27 PM MDT
Moon 11:36 AM MDT (3/18) 2:05 AM MDT (3/18)
Length of Visible Light 13h 01m
Length of Day
12h 04m
Waxing Crescent, 41% of the Moon is Illuminated
Mar 18
Waxing Crescent
Mar 19
First Quarter
Mar 27
Full
Apr 2
Last Quarter
Apr 10
New

Hourly Weather History & Observations

Time (MDT) Temp. Windchill Dew Point Humidity Pressure Visibility Wind Dir Wind Speed Gust Speed Precip Events Conditions
12:51 AM 9.0 °F 2.4 °F 3.9 °F 80% 30.06 in - ESE 3.5 mph - N/A   Unknown
1:51 AM 10.9 °F 4.7 °F 3.9 °F 73% 30.04 in - East 3.5 mph - N/A   Unknown
2:51 AM 8.1 °F 1.4 °F 3.0 °F 80% 30.06 in - Variable 3.5 mph - N/A   Unknown
3:51 AM 6.1 °F - 1.9 °F 83% 30.06 in - Calm Calm - N/A   Unknown
4:51 AM 3.9 °F -3.4 °F 1.0 °F 88% 30.07 in - SSE 3.5 mph - N/A   Unknown
5:51 AM 3.9 °F - -0.0 °F 84% 30.06 in - Calm Calm - N/A   Unknown
6:51 AM 1.9 °F -7.6 °F -0.9 °F 88% 30.09 in - SE 4.6 mph - N/A   Unknown
7:51 AM 5.0 °F -5.6 °F 1.0 °F 84% 30.08 in - ESE 5.8 mph - N/A   Unknown
8:51 AM 7.0 °F -1.7 °F 1.9 °F 80% 30.09 in - SE 4.6 mph - N/A   Unknown
9:51 AM 12.9 °F 3.8 °F 5.0 °F 71% 30.09 in - ESE 5.8 mph - N/A   Unknown
10:51 AM 19.0 °F 13.9 °F 9.0 °F 65% 30.10 in - ESE 3.5 mph - N/A   Unknown
11:51 AM 24.1 °F 19.7 °F 10.9 °F 57% 30.07 in - NNE 3.5 mph - N/A   Unknown
12:51 PM 25.0 °F - 9.0 °F 51% 30.07 in - Calm Calm - N/A   Unknown
1:51 PM 28.9 °F 22.8 °F 10.9 °F 47% 30.03 in - NNE 5.8 mph - N/A   Unknown
2:51 PM 30.0 °F 23.2 °F 6.1 °F 36% 30.04 in - NW 6.9 mph - N/A   Unknown
3:51 PM 28.9 °F 21.1 °F 10.0 °F 45% 30.03 in - North 8.1 mph - N/A   Unknown
4:51 PM 30.9 °F 26.2 °F 8.1 °F 38% 30.04 in - North 4.6 mph - N/A   Unknown
5:51 PM 30.0 °F 22.4 °F 7.0 °F 38% 30.06 in - North 8.1 mph - N/A   Unknown
6:51 PM 27.0 °F 23.0 °F 8.1 °F 45% 30.09 in - NW 3.5 mph - N/A   Unknown
7:51 PM 24.1 °F 19.7 °F 7.0 °F 48% 30.09 in - SSE 3.5 mph - N/A   Unknown
8:51 PM 19.9 °F 14.9 °F 6.1 °F 55% 30.12 in - Variable 3.5 mph - N/A   Unknown
9:51 PM 19.9 °F 11.1 °F 7.0 °F 57% 30.12 in - ESE 6.9 mph - N/A   Unknown
10:51 PM 16.0 °F 8.8 °F 6.1 °F 65% 30.13 in - Variable 4.6 mph - N/A   Unknown
11:51 PM 15.1 °F - 6.1 °F 68% 30.14 in - Calm Calm - N/A   Unknown